sat.trackr.live / text

‹ back to catalog

STARLINK-34731

NORAD 65029 · 2025-161Q

PAYLOAD ACTIVE UNKNOWN

§ Identity

Operator
Country
US
Launch date
2025-07-30
Launch site
AFWTR
Launch vehicle
Mass (kg)
RCS (m²)

Purposes: comms

External: N2YO · Heavens-Above · Gunter

§ Orbital elements

Epoch: 2026-09-19T23:50:52.723392Z

Period
93.85 min
Inclination
53.1557°
Eccentricity
0.0001568
Mean motion
15.34407444 rev/d
Perigee alt
461.6 km
Apogee alt
463.8 km
Semi-major
6,840.8 km
B*
5.4263e-4
RAAN
107.7821°
Arg perigee
87.2703°
Mean anomaly
272.8479°
Rev number
6,513

§ Raw data

STARLINK-347311 65029U 25161Q   26262.99366578  .00018006  00000+0  54263-3 0  99952 65029  53.1557 107.7821 0001568  87.2703 272.8479 15.34407444 65133

JSON: /api/v1/satellites/65029 · /tle

For live sub-satellite position, see the globe view (requires WebGL).

§ Visibility from observer

Set your observer location to see the next 7 days of passes ≥ 10°. The values pass through the URL so the page stays shareable.

No JS? Fill the form by hand. The geolocation button needs JavaScript.